Weather History for KOFP - June, 2013

Change the Weather History Date:

Saturday, June 15, 2013

  Actual Average Record
Temperature  
Mean Temperature 70 °F -  
Max Temperature 82 °F 84 °F 96 °F (1957)
Min Temperature 57 °F 61 °F 45 °F (1959)
Cooling Degree Days 4    
Growing Degree Days 20 (Base 50)    
Moisture  
Dew Point 58 °F    
Average Humidity 68    
Maximum Humidity 100    
Minimum Humidity 39    
Precipitation  
Precipitation 0.00 in - - ()
Sea Level Pressure  
Sea Level Pressure 30.05 in    
Wind  
Wind Speed 2 mph (WSW)    
Max Wind Speed 9 mph    
Max Gust Speed -    
Visibility 10 miles    
Events      
Averages and records for this station are not official NWS values.
T = Trace of Precipitation, MM = Missing Value Source: NWS Daily Summary

Daily Weather History Graph

Daily Weather History Graph

Search for Another Location

Airport or City:

Trip Planner

Search our weather history database for the weather conditions in past years. The results will help you decide how hot, cold, wet, or windy it might be!

Date:

Astronomy

Jun. 15, 2013 Rise Set
Actual Time 5:47 AM EDT 8:33 PM EDT
Civil Twilight 5:16 AM EDT 9:04 PM EDT
Nautical Twilight 4:37 AM EDT 9:43 PM EDT
Astronomical Twilight 3:52 AM EDT 10:27 PM EDT
Moon 12:13 PM EDT (6/15) 12:13 AM EDT (6/15)
Length of Visible Light 15h 48m
Length of Day
14h 45m
Waxing Crescent, 39% of the Moon is Illuminated
Jun 15
Waxing Crescent
Jun 16
First Quarter
Jun 23
Full
Jun 30
Last Quarter
Jul 8
New

Hourly Weather History & Observations

Time (EDT) Temp. Heat Index Dew Point Humidity Pressure Visibility Wind Dir Wind Speed Gust Speed Precip Events Conditions
12:54 AM 61.0 °F - 57.9 °F 90% 30.01 in 10.0 mi Calm Calm - N/A   Clear
1:54 AM 60.1 °F - 57.0 °F 90% 30.02 in 10.0 mi Calm Calm - N/A   Clear
2:54 AM 59.0 °F - 57.0 °F 93% 30.02 in 10.0 mi Calm Calm - N/A   Clear
3:54 AM 57.9 °F - 57.0 °F 97% 30.01 in 8.0 mi Calm Calm - N/A   Clear
4:54 AM 57.9 °F - 57.0 °F 97% 30.03 in 9.0 mi Calm Calm - N/A   Clear
5:54 AM 57.0 °F - 57.0 °F 100% 30.04 in 7.0 mi Calm Calm - N/A   Clear
6:54 AM 60.1 °F - 57.9 °F 93% 30.07 in 9.0 mi Calm Calm - N/A   Clear
7:54 AM 64.9 °F - 57.9 °F 78% 30.09 in 10.0 mi West 5.8 mph - N/A   Clear
8:54 AM 71.1 °F - 57.9 °F 63% 30.10 in 10.0 mi Calm Calm - N/A   Clear
9:54 AM 75.9 °F - 57.9 °F 54% 30.10 in 10.0 mi Calm Calm - N/A   Clear
10:54 AM 78.1 °F - 57.0 °F 48% 30.10 in 10.0 mi Variable 3.5 mph - N/A   Clear
11:54 AM 79.0 °F - 57.0 °F 47% 30.09 in 10.0 mi Variable 3.5 mph - N/A   Clear
12:54 PM 80.1 °F 80.4 °F 57.0 °F 45% 30.08 in 10.0 mi Variable 4.6 mph - N/A   Mostly Cloudy
1:54 PM 81.0 °F 81.0 °F 57.0 °F 44% 30.07 in 10.0 mi West 5.8 mph - N/A   Partly Cloudy
2:54 PM 81.0 °F 81.0 °F 57.0 °F 44% 30.05 in 10.0 mi WSW 6.9 mph - N/A   Partly Cloudy
3:54 PM 81.0 °F 80.7 °F 55.0 °F 41% 30.04 in 10.0 mi Variable 3.5 mph - N/A   Mostly Cloudy
4:54 PM 82.9 °F 82.1 °F 55.9 °F 39% 30.04 in 10.0 mi West 6.9 mph - N/A   Partly Cloudy
5:54 PM 82.0 °F 81.4 °F 55.0 °F 39% 30.03 in 10.0 mi West 9.2 mph - N/A   Partly Cloudy
6:54 PM 81.0 °F 80.8 °F 55.9 °F 42% 30.03 in 10.0 mi WSW 6.9 mph - N/A   Clear
7:54 PM 79.0 °F - 57.0 °F 47% 30.03 in 10.0 mi SSW 4.6 mph - N/A   Clear
8:54 PM 69.1 °F - 62.1 °F 78% 30.04 in 10.0 mi Calm Calm - N/A   Clear
9:54 PM 66.9 °F - 61.0 °F 81% 30.05 in 10.0 mi Calm Calm - N/A   Clear
10:54 PM 64.9 °F - 61.0 °F 87% 30.05 in 10.0 mi Calm Calm - N/A   Clear
11:54 PM 64.0 °F - 61.0 °F 90% 30.04 in 9.0 mi Calm Calm - N/A   Clear